[[{"header":{"parameterUnit":"m.s-1","parameterCategory":1,"la1":30.2991,"la2":30.254,"lo1":-89.0895,"lo2":-89.0444,"dy":0.0017,"dx":0.0017,"nx":28,"ny":28,"refTime":"2024-09-02T21:00:00:Z","depth":0,"parameterNumber":2,"parameterNumberName":"U-component_of_WINDS"},"data":[0,0,0,0,0,0,0,0,0,0,0,0,0,0,0,0,0,0,0,0,0,0,0,0,0,0,0,0,0,0,0,0,0,0,0,0,0,0,0,0,0,0,0,0,0,0,0,0,0,0,0,0,0,0,0,0,0,0,-9.5863,-9.5864,0,-9.5976,-9.5978,-9.5979,-9.5879,-9.5875,-9.5871,-9.5867,-9.5971,-9.5977,-9.5984,0,0,0,0,0,0,0,0,0,0,0,0,0,-9.555,-9.5556,-9.5863,-9.5864,-9.5866,-9.5976,-9.5978,-9.5979,-9.588,-9.5875,-9.587,-9.5865,-9.5969,-9.5977,-9.5984,0,0,0,0,0,0,0,0,0,0,0,0,0,-9.5676,-9.5558,-9.5863,-9.583,-9.5828,-9.5976,-9.5978,-9.598,-9.5881,-9.5875,-9.5869,-9.5863,-9.5966,-9.5976,-9.5985,-9.6168,0,0,-9.6015,-9.602,0,0,0,0,0,0,0,0,-9.5669,-9.5688,-9.5833,-9.5832,-9.5831,-9.5908,-9.5905,-9.6042,-9.5882,-9.586,-9.5867,-9.586,-9.5954,-9.5964,-9.5999,-9.6173,-9.6177,-9.6016,-9.6022,-9.6026,-9.6029,0,0,0,0,0,0,0,-9.5661,-9.5683,-9.5907,-9.5835,-9.5834,-9.5806,-9.5817,-9.5931,-9.5939,-9.5862,-9.5855,-9.587,-9.5952,-9.5989,-9.6,-9.6179,-9.6016,-9.6025,-9.6031,-9.6035,-9.6507,-9.6514,0,0,0,0,0,0,-9.5657,-9.5676,-9.5904,-9.5911,-9.5734,-9.5817,-9.5829,-9.5889,-9.5938,-9.594,-9.5876,-9.5865,-9.5976,-9.5989,-9.6004,-9.6218,-9.6026,-9.6036,-9.6041,-9.6501,-9.6509,-9.6516,0,0,0,0,0,0,-9.5651,-9.5678,-9.5899,-9.5792,-9.5818,-9.5829,-9.5896,-9.5894,-9.5931,-9.5949,-9.5948,-9.5913,-9.5971,-9.599,-9.6128,-9.622,-9.604,-9.6049,-9.6493,-9.6503,-9.6512,-9.665,0,0,0,0,0,0,-9.5642,-9.5677,-9.5748,-9.5794,-9.5824,-9.6025,-9.5902,-9.5901,-9.595,-9.5938,-9.5983,-9.5985,-9.5968,-9.6114,-9.6138,-9.623,-9.6057,-9.6484,-9.6497,-9.6509,-9.6637,-9.6663,-9.6686,0,0,0,0,0,-9.5631,-9.5779,-9.5752,-9.578,-9.5914,-9.603,-9.6047,-9.6028,-9.5958,-9.6028,-9.604,-9.5983,-9.6209,-9.6129,-9.6155,-9.6252,-9.6478,-9.6494,-9.6508,-9.6626,-9.6658,-9.6685,0,0,0,0,0,0,-9.5737,-9.5784,-9.5754,-9.5923,-9.5974,-9.6014,-9.61,-9.6063,-9.6131,-9.6116,-9.6087,-9.6098,-9.6244,-9.6263,-9.6174,-9.6431,-9.6331,-9.6352,-9.6412,-9.6443,-9.6467,-9.6455,-9.6065,0,0,0,0,0,-9.5781,-9.5876,-9.5911,-9.6056,-9.6084,-9.6089,-9.6139,-9.6121,-9.6171,-9.619,-9.6212,-9.6259,-9.634,-9.6394,-9.6469,-9.6642,-9.6648,-9.6722,-9.6746,-9.6766,-9.6782,-9.6872,-9.6904,-9.6565,-9.6565,-9.6565,0,0,-9.587,-9.5908,-9.5968,-9.6078,-9.6115,-9.621,-9.6107,-9.6211,-9.628,-9.6205,-9.6336,-9.6356,-9.6406,-9.6563,-9.6632,-9.6582,-9.6879,-9.6785,-9.6801,-9.6806,-9.6891,-9.6923,-9.6952,-9.6575,-9.6573,-9.6572,0,0,-9.608,-9.6121,-9.6245,-9.6287,-9.6348,-9.6351,-9.6382,-9.6429,-9.6439,-9.6574,-9.6519,-9.66,-9.6741,-9.6779,-9.6817,-9.705,-9.6999,-9.7076,-9.7199,-9.7288,-9.7315,-9.7338,-9.7416,-9.7445,-9.7093,-9.7094,-9.7094,0,-9.6181,-9.6326,-9.6312,-9.6423,-9.6471,-9.6415,-9.6538,-9.6578,-9.6659,-9.6692,-9.6638,-9.6815,-9.6846,-9.7009,-9.7066,-9.7101,-9.7131,-9.7066,-9.7313,-9.7337,-9.7358,-9.7432,-9.7462,-9.7102,-9.7101,-9.71,-9.7099,0,-9.6445,-9.6547,-9.664,-9.6725,-9.6785,-9.6901,-9.6902,-9.6964,-9.6944,-9.6952,-9.7089,-9.7126,-9.7207,-9.7247,-9.7225,-9.7408,-9.7375,-9.7319,-9.7216,-9.7399,-9.7468,-9.7496,-9.7114,-9.7111,-9.7108,-9.7106,0,0,-9.6715,-9.6798,-9.6831,-9.6869,-9.6935,-9.7011,-9.7126,-9.7211,-9.7263,-9.7323,-9.7414,-9.7539,-9.7488,-9.7531,-9.7515,-9.7594,-9.7771,-9.7527,-9.7528,-9.7566,-9.797,-9.8007,-9.8041,-9.7743,-9.7748,-9.7752,-9.7964,0,-9.6923,-9.7125,-9.712,-9.7305,-9.7397,-9.7349,-9.7448,-9.7498,-9.7511,-9.7589,-9.7602,-9.7689,-9.7617,-9.7643,-9.772,-9.7733,-9.7851,-9.7719,-9.7821,-9.7825,-9.7802,-9.8077,-9.8116,-9.8313,-9.7991,-9.7996,-9.7999,0,-9.7191,-9.7265,-9.7462,-9.7517,-9.7555,-9.7645,-9.7723,-9.78,-9.7855,-9.7859,-9.7912,-9.7884,-9.7997,-9.79,-9.8052,-9.7963,-9.8006,-9.802,-9.8027,-9.8028,-9.7917,-9.808,-9.8376,-9.8403,-9.8043,-9.8039,-9.8036,0,-9.7361,-9.7511,-9.7648,-9.7683,-9.7752,-9.7815,-9.7846,-9.7897,-9.7949,-9.8018,-9.8051,-9.8131,-9.8172,-9.8234,-9.8227,-9.8158,-9.8381,-9.8284,-9.8383,-9.8383,-9.8424,-9.842,-9.8724,-9.8465,-9.8465,-9.8464,-9.8463,0,-9.759,-9.771,-9.7726,-9.7809,-9.7943,-9.7936,-9.8067,-9.8091,-9.8138,-9.8222,-9.8187,-9.8266,-9.8257,-9.8336,-9.8333,-9.8458,-9.8478,-9.8481,-9.8477,-9.848,-9.8479,-9.8501,-9.8484,-9.8472,-9.847,-9.8469,-9.8467,0,-9.7798,-9.7814,-9.7959,-9.8016,-9.8034,-9.8129,-9.8175,-9.8253,-9.8267,-9.8374,-9.8399,-9.8418,-9.851,-9.8514,-9.8618,-9.8615,-9.8766,-9.875,-9.8748,-9.8742,-9.8838,-9.8827,-9.9161,-9.9203,-9.8923,-9.8926,-9.8928,0,-9.7938,-9.8031,-9.81,-9.8157,-9.8193,-9.8285,-9.834,-9.8339,-9.8397,-9.8471,-9.8539,-9.8629,-9.87,-9.8849,-9.887,-9.895,-9.8931,-9.9044,-9.8942,-9.8942,-9.8925,-9.8917,-9.8924,-9.906,-9.9063,-9.9066,-9.9068,0,-9.8184,-9.819,-9.8273,-9.8361,-9.8429,-9.8497,-9.8559,-9.8607,-9.8613,-9.868,-9.8777,-9.8833,-9.8943,-9.9031,-9.911,-9.9138,-9.9102,-9.9102,-9.9127,-9.9127,-9.9119,-9.9119,-9.8794,-9.9091,-9.9089,-9.9087,-9.9086,-9.9085,-9.8358,-9.8438,-9.8501,-9.8595,-9.8644,-9.8705,-9.8781,-9.8808,-9.889,-9.8982,-9.8977,-9.9083,-9.9138,-9.9241,-9.9277,-9.9357,-9.9318,-9.9356,-9.9365,-9.9373,-9.938,-9.9115,-9.9372,-9.9372,-9.9371,-9.9371,-9.937,0,-9.8597,-9.8637,-9.8725,-9.8817,-9.8891,-9.8862,-9.893,-9.8992,-9.9088,-9.9145,-9.9218,-9.9329,-9.9416,-9.9448,-9.9532,-9.959,-9.9576,-9.9612,-9.9603,-9.9609,-9.9414,-9.938,-9.9622,-9.9622,-9.9622,-9.9622,-9.9621,-9.9621,-9.8729,-9.8862,-9.8876,-9.9033,-9.9071,-9.9179,-9.922,-9.9275,-9.9321,-9.9448,-9.9523,-9.9546,-9.9592,-9.968,-9.9758,-9.9765,-9.9794,-9.9835,-9.9834,-9.9649,-9.9623,-9.9598,-9.9566,-9.9843,-9.9844,-10.0022,-10.0024,-10.0025]},{"header":{"parameterUnit":"m.s-1","parameterCategory":1,"la1":30.2991,"la2":30.254,"lo1":-89.0895,"lo2":-89.0444,"dy":0.0017,"dx":0.0017,"nx":28,"ny":28,"refTime":"2024-09-02T21:00:00:Z","depth":0,"parameterNumber":3,"parameterNumberName":"V-component_of_WINDS"},"data":[0,0,0,0,0,0,0,0,0,0,0,0,0,0,0,0,0,0,0,0,0,0,0,0,0,0,0,0,0,0,0,0,0,0,0,0,0,0,0,0,0,0,0,0,0,0,0,0,0,0,0,0,0,0,0,0,0,0,2.3767,2.3765,0,2.363,2.3629,2.3627,2.3542,2.3541,2.3541,2.354,2.339,2.3387,2.3383,0,0,0,0,0,0,0,0,0,0,0,0,0,2.3945,2.3942,2.3767,2.3765,2.3763,2.363,2.3629,2.3627,2.3542,2.3541,2.3541,2.354,2.3391,2.3387,2.3383,0,0,0,0,0,0,0,0,0,0,0,0,0,2.3844,2.3941,2.3767,2.3705,2.3698,2.3631,2.3628,2.3626,2.3542,2.3541,2.3541,2.354,2.3393,2.3387,2.3382,2.3362,0,0,2.3366,2.3363,0,0,0,0,0,0,0,0,2.3849,2.3837,2.3716,2.3709,2.3702,2.3603,2.3636,2.3537,2.3542,2.3601,2.354,2.354,2.3461,2.345,2.3425,2.3355,2.3349,2.3365,2.3362,2.336,2.3358,0,0,0,0,0,0,0,2.3856,2.3842,2.3712,2.3714,2.3706,2.3681,2.3666,2.3617,2.3536,2.3596,2.3589,2.3575,2.3456,2.3431,2.3421,2.3346,2.3365,2.3361,2.3357,2.3355,2.3252,2.3252,0,0,0,0,0,0,2.3875,2.3849,2.3717,2.3708,2.3776,2.3679,2.3662,2.3635,2.3536,2.3521,2.3576,2.3571,2.344,2.3427,2.3415,2.3385,2.336,2.3355,2.3351,2.3251,2.3252,2.3252,0,0,0,0,0,0,2.3879,2.3864,2.3722,2.3777,2.3757,2.3676,2.3647,2.3632,2.3607,2.3521,2.3505,2.3565,2.3439,2.3423,2.3376,2.3378,2.3352,2.3347,2.3251,2.3252,2.3252,2.3324,0,0,0,0,0,0,2.3884,2.3866,2.3859,2.3777,2.3755,2.3689,2.3647,2.363,2.3599,2.3592,2.3507,2.3492,2.3437,2.3385,2.3371,2.337,2.3343,2.325,2.3251,2.3252,2.3321,2.3327,2.3332,0,0,0,0,0,2.3891,2.3883,2.386,2.3844,2.3746,2.3689,2.3676,2.3616,2.3599,2.3591,2.3536,2.3494,2.3381,2.3381,2.3365,2.3362,2.325,2.3251,2.3252,2.3318,2.3326,2.3332,0,0,0,0,0,0,2.3963,2.3871,2.3844,2.381,2.3759,2.3675,2.3662,2.3626,2.3575,2.3571,2.3496,2.3477,2.3438,2.3395,2.3397,2.3337,2.331,2.3308,2.3367,2.3373,2.3378,2.3388,2.3339,0,0,0,0,0,2.3976,2.3941,2.3861,2.3838,2.3814,2.3744,2.3716,2.3676,2.3618,2.3594,2.3536,2.3479,2.343,2.3399,2.335,2.3315,2.3294,2.3305,2.3311,2.3316,2.3314,2.3291,2.3295,2.3256,2.3256,2.3256,0,0,2.4,2.3945,2.3927,2.3852,2.3807,2.377,2.3725,2.3687,2.3658,2.3587,2.3541,2.3496,2.3427,2.3387,2.3366,2.335,2.3321,2.3317,2.3322,2.3317,2.3293,2.3297,2.33,2.3257,2.3257,2.3257,0,0,2.4025,2.3982,2.3958,2.3915,2.385,2.3803,2.3797,2.3719,2.3688,2.3641,2.3588,2.355,2.3468,2.3421,2.3386,2.3396,2.3355,2.3381,2.341,2.3389,2.3392,2.3394,2.3396,2.3397,2.338,2.3381,2.3381,0,2.4063,2.4008,2.3949,2.3916,2.3883,2.3822,2.3795,2.3755,2.3676,2.3653,2.3637,2.3534,2.3483,2.343,2.3433,2.3408,2.3397,2.339,2.3397,2.3398,2.3399,2.34,2.3401,2.3384,2.3384,2.3383,2.3383,0,2.4056,2.4019,2.4007,2.3936,2.3902,2.3872,2.3807,2.3779,2.3741,2.3695,2.3647,2.3585,2.3521,2.3506,2.3467,2.3447,2.344,2.3412,2.3382,2.3408,2.3407,2.3407,2.3389,2.3388,2.3387,2.3386,0,0,2.4121,2.402,2.4017,2.3984,2.3908,2.3876,2.3842,2.3784,2.3761,2.3708,2.3676,2.361,2.3584,2.3544,2.35,2.3482,2.3492,2.3455,2.3452,2.3463,2.3464,2.3485,2.3486,2.3465,2.3465,2.3465,2.3469,0,2.4134,2.4075,2.4022,2.398,2.3944,2.3886,2.3856,2.3805,2.3761,2.3721,2.3671,2.3625,2.3595,2.3571,2.355,2.3495,2.3491,2.3494,2.3432,2.343,2.345,2.3486,2.3508,2.3515,2.3469,2.3469,2.3469,0,2.4141,2.4095,2.4051,2.3979,2.3962,2.3937,2.3879,2.3843,2.3782,2.3752,2.371,2.3664,2.3623,2.36,2.3541,2.3545,2.3516,2.3485,2.3484,2.3474,2.345,2.3476,2.3516,2.3517,2.3468,2.3468,2.3468,0,2.4191,2.4118,2.4082,2.4055,2.3971,2.3955,2.3918,2.3858,2.3826,2.3775,2.3753,2.3696,2.3665,2.362,2.3559,2.3549,2.3506,2.3478,2.3477,2.3478,2.3468,2.3469,2.3503,2.3453,2.3453,2.3453,2.3453,0,2.421,2.4185,2.4104,2.4082,2.4051,2.399,2.396,2.3918,2.3865,2.3831,2.3776,2.3745,2.3668,2.3626,2.3578,2.3535,2.3521,2.3493,2.348,2.3497,2.3501,2.3476,2.3473,2.3453,2.3453,2.3453,2.3453,0,2.4261,2.4205,2.4163,2.4088,2.4068,2.4049,2.3982,2.3957,2.3912,2.3869,2.3856,2.3782,2.3731,2.3667,2.3594,2.3561,2.3523,2.3504,2.3545,2.3537,2.3538,2.3539,2.3555,2.3554,2.3508,2.3508,2.3509,0,2.4276,2.4256,2.418,2.4155,2.4122,2.4082,2.4051,2.3989,2.3958,2.3888,2.3871,2.3816,2.3769,2.3689,2.3627,2.357,2.3549,2.3559,2.3539,2.3557,2.3547,2.3548,2.3545,2.3563,2.3564,2.3564,2.3565,0,2.4308,2.4282,2.4241,2.4191,2.4156,2.4112,2.4065,2.4047,2.3975,2.3942,2.3892,2.3855,2.3783,2.3728,2.3664,2.3622,2.358,2.3572,2.3568,2.3584,2.3608,2.3594,2.3556,2.3571,2.357,2.357,2.357,2.3569,2.434,2.432,2.4264,2.4219,2.4179,2.4137,2.411,2.4062,2.402,2.3958,2.3923,2.3873,2.3811,2.3722,2.3682,2.3639,2.3624,2.3619,2.3617,2.3617,2.3621,2.3617,2.3627,2.3627,2.3627,2.3627,2.3626,0,2.4369,2.433,2.4291,2.4229,2.4194,2.4163,2.4109,2.4081,2.4039,2.3987,2.3943,2.3883,2.383,2.3765,2.3707,2.3685,2.3665,2.3672,2.3672,2.3662,2.3639,2.3648,2.369,2.369,2.369,2.369,2.369,2.369,2.4379,2.4343,2.4311,2.4253,2.4213,2.4167,2.4139,2.4099,2.4058,2.3995,2.3952,2.3912,2.3854,2.3791,2.374,2.3722,2.3702,2.3715,2.3691,2.367,2.3664,2.3659,2.3666,2.3712,2.3712,2.3718,2.3718,2.3718]}]]